Location: Wiesbaden
(50.0830°N, 8.2500°E)
Time: 20:48:01
(UTC+02:00)

ISS - Pass Details

Date: 17 July 2019
Orbit: 409 x 418 km, 51.6° (Epoch: 20 July)

Event Time Altitude Azimuth Distance (km) Brightness Sun altitude
Rises 23:51:06 0° 245° (WSW) 2,347 0.0 -15.3°
Reaches altitude 10° 23:53:12 10° 243° (WSW) 1,485 -1.0 -15.4°
Maximum altitude 23:56:31 71° 160° (SSE) 441 -3.9 -15.6°
Drops below altitude 10° 23:59:50 10° 75° (ENE) 1,485 -1.1 -15.9°
Sets 00:01:56 0° 73° (ENE) 2,347 0.0 -16.0°
